KF0ZH Weather Reports


Display with metric or nautical units.
time (UTC)temp
F
wind
direction
speed
MPH
gust
MPH
rain 1hr
in
rain 24hr
in
rain mn
in
humidity
%
barometer
mb
20240520100304 58 119 2.0 3.0 0.14 0.34 0.34 99 1007.1
20240520095805 58 46 0.0 0.0 0.16 0.34 0.34 99 1007.4
20240520095304 57 97 4.0 5.0 0.14 0.32 0.32 99 1007.4
20240520094904 58 15 3.0 7.0 0.04 0.22 0.22 99 1007.5
20240520094404 58 310 0.0 0.0 0.04 0.22 0.22 99 1008.4
20240520094305 58 310 0.0 0.0 0.02 0.20 0.20 99 1008.5
20240520093805 58 310 0.0 0.0 0.02 0.20 0.20 99 1008.7
20240520093304 58 310 0.0 0.0 0.00 0.18 0.18 99 1009.0
20240520092806 58 310 0.0 0.0 0.00 0.18 0.18 99 1009.0
20240520092304 58 310 0.0 0.0 0.04 0.22 0.22 99 1009.1
20240520091804 58 310 0.0 0.0 0.04 0.22 0.22 99 1009.1
20240520091305 58 310 0.0 0.0 0.04 0.22 0.22 99 1009.2
20240520091205 58 310 0.0 0.0 0.02 0.20 0.20 99 1009.2
20240520090707 58 37 0.0 0.0 0.02 0.20 0.20 99 1009.2
20240520090204 58 37 0.0 0.0 0.02 0.20 0.20 99 1009.3
20240520085805 58 37 0.0 0.0 0.00 0.18 0.18 99 1009.1
20240520085304 58 37 0.0 0.0 0.00 0.18 0.18 99 1008.9
20240520084804 58 37 0.0 0.0 0.00 0.18 0.18 99 1008.6
20240520084306 58 37 0.0 0.0 0.00 0.18 0.18 99 1008.6
20240520083804 58 37 0.0 0.0 0.00 0.18 0.18 99 1008.6
20240520083305 58 37 0.0 0.0 0.00 0.18 0.18 99 1008.7
20240520082804 58 37 0.0 0.0 0.00 0.18 0.18 99 1008.7
20240520082304 58 37 0.0 0.0 0.00 0.18 0.18 99 1008.3
20240520081804 58 37 0.0 0.0 0.00 0.18 0.18 99 1008.1
20240520081304 58 37 0.0 0.0 0.00 0.18 0.18 99 1008.0
20240520080804 58 37 0.0 0.0 0.00 0.18 0.18 99 1007.7
20240520080304 58 37 0.0 0.0 0.00 0.18 0.18 99 1007.5
20240520075804 58 37 0.0 0.0 0.12 0.18 0.18 99 1007.3
20240520075304 58 37 0.0 0.0 0.14 0.18 0.18 99 1007.3
20240520074804 57 37 0.0 0.0 0.16 0.18 0.18 99 1007.3
20240520074305 57 37 0.0 0.0 0.18 0.18 0.18 99 1007.5
20240520073804 57 37 0.0 0.0 0.18 0.18 0.18 99 1007.5
20240520073304 57 37 0.0 0.0 0.18 0.18 0.18 98 1007.5
20240520072804 57 37 0.0 0.0 0.18 0.18 0.18 97 1007.7
20240520072304 57 37 0.0 0.0 0.18 0.18 0.18 97 1007.9
20240520071805 57 37 0.0 0.0 0.18 0.18 0.18 95 1007.7
20240520071304 57 37 0.0 0.0 0.18 0.18 0.18 94 1007.5
20240520070804 58 37 0.0 0.0 0.18 0.18 0.18 93 1007.4
20240520070305 59 37 2.0 5.0 0.18 0.18 0.18 91 1007.4
20240520070105 59 29 0.0 2.0 0.16 0.16 0.16 89 1007.5
20240520065805 59 46 3.0 4.0 0.06 0.06 0.06 88 1007.5
20240520065306 60 88 3.0 4.0 0.04 0.04 0.04 82 1007.7
20240520064937 61 127 0.0 0.0 0.02 0.02 0.02 78 1008.0
20240520064905 61 127 0.0 0.0 0.02 0.02 0.02 78 1008.0
20240520064404 61 127 0.0 0.0 0.00 0.00 0.00 74 1007.9
20240520063906 61 127 0.0 0.0 0.00 0.00 0.00 72 1007.7
20240520063404 61 127 0.0 2.0 0.00 0.00 0.00 72 1007.6
20240520062904 61 56 4.0 6.0 0.00 0.00 0.00 72 1007.6
20240520062404 61 64 0.0 7.0 0.00 0.00 0.00 71 1007.6
20240520061904 61 64 0.0 0.0 0.00 0.00 0.00 71 1007.6
20240520061404 61 64 0.0 0.0 0.00 0.00 0.00 71 1007.7
20240520060905 61 64 0.0 0.0 0.00 0.00 0.00 71 1008.0
20240520060404 61 64 0.0 0.0 0.00 0.00 0.00 71 1008.1
20240520055904 61 64 0.0 0.0 0.00 0.00 0.00 70 1008.0
20240520055404 61 64 0.0 0.0 0.00 0.00 0.00 70 1008.1
20240520054905 61 64 0.0 0.0 0.00 0.00 0.00 70 1008.2
20240520054404 61 64 0.0 0.0 0.00 0.00 0.00 70 1008.2
20240520053904 62 64 0.0 0.0 0.00 0.00 0.00 69 1008.2
20240520053404 62 64 0.0 0.0 0.00 0.00 0.00 69 1008.4
20240520052904 62 64 0.0 0.0 0.00 0.00 0.00 69 1008.3
20240520052405 62 64 0.0 0.0 0.00 0.00 0.00 68 1008.1
20240520051904 62 64 0.0 0.0 0.00 0.00 0.00 68 1008.2
20240520051404 62 64 0.0 0.0 0.00 0.00 0.00 68 1008.3
20240520050908 62 64 0.0 0.0 0.00 0.00 0.00 68 1008.4
20240520050404 63 64 0.0 0.0 0.00 0.00 0.00 68 1008.5
20240520045904 63 64 0.0 0.0 0.00 0.00 0.00 67 1008.6
20240520045404 63 64 0.0 0.0 0.00 0.00 0.00 67 1008.7
20240520044904 62 64 0.0 0.0 0.00 0.00 0.00 68 1008.8
20240520044404 62 64 0.0 0.0 0.00 0.00 0.00 68 1008.9
20240520043904 62 64 0.0 0.0 0.00 0.00 0.00 68 1009.0
20240520043404 62 64 0.0 0.0 0.00 0.00 0.00 68 1009.1
20240520042906 62 64 0.0 0.0 0.00 0.00 0.00 66 1009.1
20240520042404 63 64 0.0 0.0 0.00 0.00 0.00 67 1009.2
20240520041904 63 64 0.0 0.0 0.00 0.00 0.00 67 1009.3
20240520041404 63 64 0.0 0.0 0.00 0.00 0.00 67 1009.4
20240520040907 63 64 0.0 0.0 0.00 0.00 0.00 66 1009.6
20240520040404 63 64 0.0 0.0 0.00 0.00 0.00 66 1009.6
20240520035905 63 64 0.0 4.0 0.00 0.00 0.00 66 1009.6
20240520035405 63 78 0.0 0.0 0.00 0.00 0.00 66 1009.6
20240520034904 63 78 0.0 6.0 0.00 0.00 0.00 66 1009.4
20240520034404 63 88 0.0 3.0 0.00 0.00 0.00 66 1009.5
20240520033904 63 126 0.0 0.0 0.00 0.00 0.00 66 1009.7
20240520033404 63 126 0.0 0.0 0.00 0.00 0.00 65 1009.7
20240520032908 64 126 0.0 0.0 0.00 0.00 0.00 65 1009.8
20240520032404 64 126 0.0 0.0 0.00 0.00 0.00 65 1009.7
20240520031905 64 126 0.0 0.0 0.00 0.00 0.00 64 1009.8
20240520031404 64 126 0.0 0.0 0.00 0.00 0.00 64 1009.9
20240520030904 64 126 0.0 0.0 0.00 0.00 0.00 64 1010.0
20240520030404 64 126 0.0 0.0 0.00 0.00 0.00 64 1010.1
20240520025904 64 126 0.0 0.0 0.00 0.00 0.00 63 1010.1
20240520025404 64 126 0.0 0.0 0.00 0.00 0.00 63 1010.0
20240520024906 64 126 0.0 0.0 0.00 0.00 0.00 63 1010.0
20240520024404 64 126 0.0 2.0 0.00 0.00 0.00 63 1009.9
20240520023904 64 126 0.0 0.0 0.00 0.00 0.00 63 1009.9
20240520023404 64 126 0.0 0.0 0.00 0.00 0.00 63 1009.9
20240520022904 65 126 0.0 0.0 0.00 0.00 0.00 63 1010.0
20240520022404 65 122 0.0 0.0 0.00 0.00 0.00 63 1009.9
20240520021904 65 122 0.0 0.0 0.00 0.00 0.00 61 1010.0
20240520021404 65 122 0.0 0.0 0.00 0.00 0.00 62 1010.1
20240520020906 65 122 0.0 0.0 0.00 0.00 0.00 62 1010.1
20240520020404 65 122 0.0 0.0 0.00 0.00 0.00 61 1010.3
20240520015905 65 122 0.0 1.0 0.00 0.00 0.00 61 1010.2
20240520015404 65 122 0.0 0.0 0.00 0.00 0.00 61 1010.5
20240520014904 65 122 0.0 0.0 0.00 0.00 0.00 60 1010.5
20240520014404 65 122 0.0 0.0 0.00 0.00 0.00 60 1010.6
20240520013904 66 122 0.0 0.0 0.00 0.00 0.00 59 1010.5
20240520013404 66 122 0.0 0.0 0.00 0.00 0.00 59 1010.4
20240520012905 66 122 0.0 0.0 0.00 0.00 0.00 58 1010.3
20240520012404 66 122 0.0 0.0 0.00 0.00 0.00 58 1010.1
20240520011905 66 122 0.0 0.0 0.00 0.00 0.00 57 1010.1
20240520011404 66 122 0.0 7.0 0.00 0.00 0.00 57 1010.1
20240520010904 66 82 0.0 0.0 0.00 0.00 0.00 57 1010.3
20240520010404 66 82 0.0 2.0 0.00 0.00 0.00 57 1010.4
20240520005904 66 68 0.0 9.0 0.00 0.00 0.00 57 1010.5
20240520005406 66 77 0.0 7.0 0.00 0.00 0.00 58 1010.7
20240520004904 66 133 0.0 0.0 0.00 0.00 0.00 59 1010.9
20240520004404 66 133 0.0 0.0 0.00 0.00 0.00 60 1011.1
20240520003905 66 133 0.0 0.0 0.00 0.00 0.00 59 1011.0
20240520003404 66 133 0.0 2.0 0.00 0.00 0.00 59 1011.0
20240520002905 66 133 0.0 0.0 0.00 0.00 0.00 59 1010.9
20240520002404 67 133 0.0 5.0 0.00 0.00 0.00 58 1010.9
20240520001904 67 61 0.0 3.0 0.00 0.00 0.00 57 1010.9
20240520001404 67 102 4.0 7.0 0.00 0.00 0.00 56 1010.8
20240520000904 68 175 0.0 0.0 0.00 0.00 0.00 56 1010.8
20240520000404 68 175 0.0 3.0 0.00 0.00 0.00 55 1010.8
20240519235904 68 74 0.0 10.0 0.00 0.00 0.00 54 1011.1
20240519235404 69 61 0.0 11.0 0.00 0.00 0.00 55 1011.1
20240519234904 69 170 0.0 10.0 0.00 0.00 0.00 54 1011.2
20240519234404 68 61 2.0 6.0 0.00 0.00 0.00 53 1011.2
20240519233904 68 95 0.0 0.0 0.00 0.00 0.00 53 1011.2
20240519233404 69 95 0.0 6.0 0.00 0.00 0.00 53 1011.4
20240519232904 69 102 0.0 0.0 0.00 0.00 0.00 55 1011.2
20240519232404 69 102 0.0 3.0 0.00 0.00 0.00 55 1011.2
20240519231904 69 75 0.0 0.0 0.00 0.00 0.00 54 1011.4
20240519231404 68 75 0.0 0.0 0.00 0.00 0.00 54 1011.4
20240519230905 68 75 0.0 0.0 0.00 0.00 0.00 57 1011.5
20240519230404 68 75 0.0 0.0 0.00 0.00 0.00 57 1011.5
20240519225957 68 75 0.0 0.0 0.00 0.00 0.00 56 1011.5
20240519225905 68 75 0.0 0.0 0.00 0.00 0.00 56 1011.5
20240519225404 68 75 0.0 0.0 0.00 0.00 0.00 56 1011.5
20240519224904 68 75 0.0 0.0 0.00 0.00 0.00 56 1011.5
20240519224404 68 75 0.0 0.0 0.00 0.00 0.00 54 1011.6
20240519223906 68 75 0.0 0.0 0.00 0.00 0.00 54 1011.5
20240519223404 68 75 0.0 2.0 0.00 0.00 0.00 53 1011.6
20240519222904 68 75 0.0 0.0 0.00 0.00 0.00 53 1011.7
20240519222404 68 75 0.0 6.0 0.00 0.00 0.00 52 1011.9
20240519221905 68 87 3.0 6.0 0.00 0.00 0.00 51 1012.0
20240519221405 69 167 0.0 2.0 0.00 0.00 0.00 51 1012.3
20240519220904 69 185 0.0 0.0 0.00 0.00 0.00 50 1012.6
20240519220405 69 185 0.0 0.0 0.00 0.00 0.00 50 1012.6
20240519215904 69 185 0.0 6.0 0.00 0.00 0.00 48 1012.8
20240519215404 69 202 0.0 0.0 0.00 0.00 0.00 49 1012.7
20240519214905 69 202 0.0 0.0 0.00 0.00 0.00 47 1012.7
20240519214404 69 202 0.0 0.0 0.00 0.00 0.00 47 1012.7
20240519213904 70 202 0.0 0.0 0.00 0.00 0.00 47 1012.8
20240519213404 70 201 0.0 7.0 0.00 0.00 0.00 46 1012.9
20240519212904 70 189 0.0 0.0 0.00 0.00 0.00 45 1012.9
20240519212404 70 189 0.0 7.0 0.00 0.00 0.00 46 1013.0
20240519211905 70 168 0.0 4.0 0.00 0.00 0.00 46 1013.1
20240519211404 70 206 0.0 0.0 0.00 0.00 0.00 47 1013.1
20240519210905 70 206 0.0 8.0 0.00 0.00 0.00 45 1013.3
20240519210404 70 209 0.0 11.0 0.00 0.00 0.00 45 1013.4
20240519205904 70 175 3.0 3.0 0.00 0.00 0.00 45 1013.6
20240519205404 70 153 0.0 5.0 0.00 0.00 0.00 45 1013.6
20240519204904 70 146 3.0 6.0 0.00 0.00 0.00 44 1013.7
20240519204404 71 91 0.0 7.0 0.00 0.00 0.00 45 1013.7
20240519203904 71 135 0.0 9.0 0.00 0.00 0.00 47 1013.8
20240519203404 71 135 0.0 10.0 0.00 0.00 0.00 44 1013.7
20240519202904 71 175 4.0 10.0 0.00 0.00 0.00 44 1014.0
20240519202404 71 142 0.0 11.0 0.00 0.00 0.00 43 1013.9
20240519201904 71 192 0.0 4.0 0.00 0.00 0.00 44 1013.9
20240519201404 72 143 0.0 6.0 0.00 0.00 0.00 46 1014.1
20240519200905 72 178 0.0 8.0 0.00 0.00 0.00 45 1014.1
20240519200404 71 180 0.0 5.0 0.00 0.00 0.00 46 1014.1
20240519195904 71 154 0.0 0.0 0.00 0.00 0.00 44 1014.4
20240519195404 71 154 0.0 7.0 0.00 0.00 0.00 46 1014.4
20240519194904 71 132 0.0 13.0 0.00 0.00 0.00 44 1014.6
20240519194404 71 135 7.0 13.0 0.00 0.00 0.00 47 1014.7
20240519193904 71 161 0.0 4.0 0.00 0.00 0.00 48 1014.2
20240519193404 71 206 0.0 0.0 0.00 0.00 0.00 47 1014.0
20240519192904 71 206 0.0 0.0 0.00 0.00 0.00 49 1014.2
20240519192404 71 206 0.0 3.0 0.00 0.00 0.00 48 1014.8
20240519191906 71 182 4.0 8.0 0.00 0.00 0.00 47 1015.1
20240519191404 72 177 0.0 3.0 0.00 0.00 0.00 47 1015.3
20240519190904 72 194 0.0 7.0 0.00 0.00 0.00 46 1015.6
20240519190404 72 147 0.0 2.0 0.00 0.00 0.00 49 1015.4
20240519185905 72 147 0.0 0.0 0.00 0.00 0.00 49 1015.5
20240519185404 71 147 0.0 0.0 0.00 0.00 0.00 48 1015.6
20240519184905 71 147 0.0 0.0 0.00 0.00 0.00 49 1015.5
20240519184404 71 161 0.0 4.0 0.00 0.00 0.00 46 1015.4
20240519183904 70 177 0.0 6.0 0.00 0.00 0.00 47 1015.2
20240519183404 70 198 2.0 6.0 0.00 0.00 0.00 48 1015.2
20240519182905 70 106 0.0 0.0 0.00 0.00 0.00 50 1015.2
20240519182404 70 106 0.0 0.0 0.00 0.00 0.00 49 1015.3
20240519181904 70 106 0.0 1.0 0.00 0.00 0.00 50 1015.2
20240519181404 71 80 0.0 4.0 0.00 0.00 0.00 49 1015.2
20240519180904 71 80 0.0 0.0 0.00 0.00 0.00 49 1015.3
20240519180404 71 80 0.0 3.0 0.00 0.00 0.00 51 1015.3
20240519175904 71 80 0.0 2.0 0.00 0.00 0.00 53 1015.2
20240519175404 70 80 0.0 3.0 0.00 0.00 0.00 52 1015.2
20240519174905 70 80 0.0 4.0 0.00 0.00 0.00 54 1015.3
20240519174404 70 154 0.0 0.0 0.00 0.00 0.00 54 1015.3
20240519173905 70 154 0.0 0.0 0.00 0.00 0.00 54 1015.3
20240519173404 70 154 0.0 5.0 0.00 0.00 0.00 53 1015.4
20240519172904 69 219 0.0 0.0 0.00 0.00 0.00 54 1015.5
20240519172404 69 219 0.0 0.0 0.00 0.00 0.00 51 1015.7
20240519171905 69 219 0.0 5.0 0.00 0.00 0.00 58 1015.8
20240519171404 68 146 0.0 6.0 0.00 0.00 0.00 54 1015.9
20240519170904 69 52 0.0 0.0 0.00 0.00 0.00 57 1016.0
20240519170404 68 52 0.0 4.0 0.00 0.00 0.00 58 1015.9
20240519165904 68 189 0.0 6.0 0.00 0.00 0.00 57 1016.0
20240519165404 68 201 4.0 7.0 0.00 0.00 0.00 57 1016.0
20240519164904 68 127 0.0 0.0 0.00 0.00 0.00 61 1016.1
20240519164404 68 127 0.0 0.0 0.00 0.00 0.00 59 1016.3
20240519163904 67 127 0.0 0.0 0.00 0.00 0.00 60 1016.4
20240519163515 67 127 0.0 4.0 0.00 0.00 0.00 61 1016.6
20240519163404 67 127 0.0 4.0 0.00 0.00 0.00 61 1016.6
20240519162905 67 181 0.0 6.0 0.00 0.00 0.00 60 1016.5
20240519162404 67 234 0.0 6.0 0.00 0.00 0.00 61 1016.7
20240519161905 67 175 0.0 0.0 0.00 0.00 0.00 62 1016.7
20240519161404 66 177 5.0 7.0 0.00 0.00 0.00 63 1016.8
20240519160906 66 160 0.0 0.0 0.00 0.00 0.00 62 1016.8
20240519160404 66 160 0.0 4.0 0.00 0.00 0.00 62 1016.6
20240519155904 66 206 3.0 6.0 0.00 0.00 0.00 62 1016.6
20240519155404 66 154 0.0 7.0 0.00 0.00 0.00 64 1016.6
20240519154905 66 237 0.0 3.0 0.00 0.00 0.00 65 1016.7
20240519154404 65 220 0.0 3.0 0.00 0.00 0.00 65 1016.6
20240519153904 65 201 0.0 5.0 0.00 0.00 0.00 65 1016.7
20240519153406 65 161 0.0 2.0 0.00 0.00 0.00 65 1016.7
20240519152904 65 161 0.0 5.0 0.00 0.00 0.00 66 1016.8
20240519152404 65 181 0.0 6.0 0.00 0.00 0.00 67 1017.0
20240519151905 65 199 0.0 4.0 0.00 0.00 0.00 65 1016.9
20240519151404 65 243 0.0 5.0 0.00 0.00 0.00 65 1016.7
20240519150906 65 157 0.0 3.0 0.00 0.00 0.00 66 1016.7
20240519150405 64 167 3.0 3.0 0.00 0.00 0.00 67 1016.8
20240519145905 64 174 0.0 0.0 0.00 0.00 0.00 67 1016.7
20240519145404 64 174 0.0 0.0 0.00 0.00 0.00 68 1016.9
20240519144904 64 174 0.0 0.0 0.00 0.00 0.00 68 1016.8
20240519144405 64 174 0.0 0.0 0.00 0.00 0.00 68 1017.1
20240519143904 63 174 0.0 0.0 0.00 0.00 0.00 69 1017.3
20240519143404 63 232 0.0 4.0 0.00 0.00 0.00 69 1017.3
20240519142904 62 262 0.0 4.0 0.00 0.00 0.00 69 1017.3
20240519142404 62 194 0.0 4.0 0.00 0.00 0.00 68 1017.2
20240519141904 61 289 0.0 6.0 0.00 0.00 0.00 70 1017.2
20240519141404 60 264 0.0 4.0 0.00 0.00 0.00 70 1017.0